Change the Weather History Date:

Sunday, November 3, 2013

  Actual Average (KFFM) Record (KFFM)
Temperature  
Mean Temperature 45 °F -  
Max Temperature 53 °F 43 °F 71 °F (2008)
Min Temperature 37 °F 27 °F 6 °F (1951)
Degree Days  
Heating Degree Days 20    
Moisture  
Dew Point 32 °F    
Average Humidity 65    
Maximum Humidity 87    
Minimum Humidity 44    
Precipitation  
Precipitation 0.00 in - - ()
Sea Level Pressure  
Sea Level Pressure 29.77 in    
Wind  
Wind Speed 16 mph (SE)    
Max Wind Speed 31 mph    
Max Gust Speed 41 mph    
Visibility 10 miles    
Events      
Averages and records for this station are not official NWS values.
T = Trace of Precipitation, MM = Missing Value Source: NWS Daily Summary

Daily Weather History Graph

Daily Weather History Graph

Search for Another Location

Airport or City:

Trip Planner

Search our weather history database for the weather conditions in past years. The results will help you decide how hot, cold, wet, or windy it might be!

Date:

Astronomy

Nov. 03, 2013 Rise Set
Actual Time 7:10 AM CST 5:08 PM CST
Civil Twilight 6:39 AM CST 5:40 PM CST
Nautical Twilight 6:03 AM CST 6:15 PM CST
Astronomical Twilight 5:28 AM CST 6:50 PM CST
Moon 7:16 AM CST (11/3) 5:22 PM CST (11/3)
Length of Visible Light 11h 00m
Length of Day
9h 57m
New Moon, 0% of the Moon is Illuminated
Nov 3
New Moon
Nov 9
First Quarter
Nov 17
Full
Nov 25
Last Quarter
Dec 2
New

Hourly Weather History & Observations

Time (CST) Temp. Windchill Dew Point Humidity Pressure Visibility Wind Dir Wind Speed Gust Speed Precip Events Conditions
12:15 AM 37.4 °F 30.8 °F 32.0 °F 81% 29.98 in 10.0 mi SSE 9.2 mph - N/A   Clear
12:35 AM 37.4 °F 29.8 °F 32.0 °F 81% 29.98 in 10.0 mi SSE 11.5 mph - N/A   Clear
12:55 AM 37.4 °F 29.8 °F 33.8 °F 87% 29.97 in 10.0 mi SE 11.5 mph - N/A   Scattered Clouds
1:15 AM 37.4 °F 30.3 °F 33.8 °F 87% 29.97 in 10.0 mi SE 10.4 mph - N/A   Scattered Clouds
1:35 AM 37.4 °F 29.8 °F 33.8 °F 87% 29.96 in 10.0 mi SE 11.5 mph - N/A   Mostly Cloudy
1:55 AM 37.4 °F 29.8 °F 33.8 °F 87% 29.96 in 10.0 mi SE 11.5 mph - N/A   Scattered Clouds
1:15 AM 37.4 °F 29.8 °F 33.8 °F 87% 29.96 in 10.0 mi SE 11.5 mph 16.1 mph N/A   Clear
1:35 AM 37.4 °F 29.8 °F 33.8 °F 87% 29.95 in 10.0 mi SE 11.5 mph - N/A   Clear
1:55 AM 37.4 °F 30.3 °F 33.8 °F 87% 29.94 in 10.0 mi SE 10.4 mph 16.1 mph N/A   Clear
2:15 AM 37.4 °F 29.8 °F 33.8 °F 87% 29.94 in 10.0 mi SE 11.5 mph - N/A   Clear
2:35 AM 37.4 °F 30.3 °F 32.0 °F 81% 29.93 in 10.0 mi SE 10.4 mph - N/A   Clear
2:55 AM 37.4 °F 29.3 °F 32.0 °F 81% 29.92 in 10.0 mi SE 12.7 mph 17.3 mph N/A   Clear
3:15 AM 37.4 °F 29.3 °F 32.0 °F 81% 29.91 in 10.0 mi SE 12.7 mph - N/A   Clear
3:35 AM 37.4 °F 29.3 °F 32.0 °F 81% 29.89 in 10.0 mi SE 12.7 mph - N/A   Clear
3:55 AM 37.4 °F 29.8 °F 32.0 °F 81% 29.88 in 10.0 mi SE 11.5 mph - N/A   Clear
4:15 AM 37.4 °F 29.3 °F 32.0 °F 81% 29.88 in 10.0 mi SE 12.7 mph 18.4 mph N/A   Clear
4:35 AM 37.4 °F 28.5 °F 32.0 °F 81% 29.87 in 10.0 mi SE 15.0 mph 18.4 mph N/A   Clear
4:55 AM 37.4 °F 28.9 °F 32.0 °F 81% 29.86 in 10.0 mi SE 13.8 mph - N/A   Clear
5:15 AM 37.4 °F 28.2 °F 32.0 °F 81% 29.85 in 10.0 mi SE 16.1 mph - N/A   Clear
5:35 AM 37.4 °F 28.9 °F 32.0 °F 81% 29.84 in 10.0 mi SE 13.8 mph - N/A   Scattered Clouds
5:55 AM 37.4 °F 28.2 °F 32.0 °F 81% 29.84 in 10.0 mi SE 16.1 mph 21.9 mph N/A   Clear
6:15 AM 37.4 °F 28.5 °F 32.0 °F 81% 29.83 in 10.0 mi ESE 15.0 mph 20.7 mph N/A   Clear
6:35 AM 37.4 °F 28.2 °F 32.0 °F 81% 29.83 in 10.0 mi SE 16.1 mph 23.0 mph N/A   Clear
6:55 AM 37.4 °F 27.8 °F 32.0 °F 81% 29.82 in 10.0 mi SE 17.3 mph 23.0 mph N/A   Clear
7:15 AM 37.4 °F 27.8 °F 32.0 °F 81% 29.82 in 10.0 mi SE 17.3 mph 21.9 mph N/A   Mostly Cloudy
7:35 AM 37.4 °F 27.2 °F 32.0 °F 81% 29.81 in 10.0 mi SE 19.6 mph 26.5 mph N/A   Scattered Clouds
7:55 AM 37.4 °F 26.9 °F 32.0 °F 81% 29.80 in 10.0 mi SE 20.7 mph 24.2 mph N/A   Clear
8:15 AM 39.2 °F 30.2 °F 32.0 °F 75% 29.80 in 10.0 mi SE 17.3 mph 24.2 mph N/A   Clear
8:35 AM 39.2 °F 30.2 °F 32.0 °F 75% 29.80 in 10.0 mi SE 17.3 mph 29.9 mph N/A   Clear
8:55 AM 41.0 °F 31.9 °F 32.0 °F 70% 29.79 in 10.0 mi SE 19.6 mph 26.5 mph N/A   Clear
9:15 AM 41.0 °F 31.6 °F 32.0 °F 70% 29.78 in 10.0 mi SE 20.7 mph 26.5 mph N/A   Clear
9:35 AM 42.8 °F 33.1 °F 32.0 °F 66% 29.77 in 10.0 mi SE 25.3 mph 34.5 mph N/A   Clear
9:55 AM 44.6 °F 35.5 °F 32.0 °F 61% 29.76 in 10.0 mi SE 25.3 mph 33.4 mph N/A   Clear
10:15 AM 44.6 °F 36.1 °F 32.0 °F 61% 29.75 in 10.0 mi SSE 21.9 mph 33.4 mph N/A   Clear
10:35 AM 46.4 °F 37.5 °F 32.0 °F 57% 29.74 in 10.0 mi SE 27.6 mph 36.8 mph N/A   Clear
10:55 AM 46.4 °F 38.1 °F 32.0 °F 57% 29.73 in 10.0 mi SSE 24.2 mph 35.7 mph N/A   Clear
11:15 AM 46.4 °F 37.2 °F 32.0 °F 57% 29.72 in 10.0 mi SE 29.9 mph 36.8 mph N/A   Clear
11:35 AM 46.4 °F 37.4 °F 32.0 °F 57% 29.70 in 10.0 mi SSE 28.8 mph 38.0 mph N/A   Clear
11:55 AM 50.0 °F - 32.0 °F 50% 29.69 in 10.0 mi SSE 26.5 mph 38.0 mph N/A   Clear
12:15 PM 50.0 °F - 32.0 °F 50% 29.69 in 10.0 mi SSE 28.8 mph 38.0 mph N/A   Clear
12:35 PM 51.8 °F - 32.0 °F 47% 29.67 in 10.0 mi SSE 31.1 mph 40.3 mph N/A   Clear
12:55 PM 50.0 °F - 32.0 °F 50% 29.67 in 10.0 mi SSE 29.9 mph 38.0 mph N/A   Clear
1:15 PM 51.8 °F - 32.0 °F 47% 29.67 in 10.0 mi SSE 27.6 mph 40.3 mph N/A   Clear
1:35 PM 51.8 °F - 32.0 °F 47% 29.66 in 10.0 mi SSE 28.8 mph 41.4 mph N/A   Clear
1:55 PM 51.8 °F - 32.0 °F 47% 29.66 in 10.0 mi SSE 21.9 mph 31.1 mph N/A   Clear
2:15 PM 51.8 °F - 32.0 °F 47% 29.65 in 10.0 mi SSE 19.6 mph 28.8 mph N/A   Clear
2:35 PM 53.6 °F - 32.0 °F 44% 29.65 in 10.0 mi SSE 25.3 mph 32.2 mph N/A   Clear
2:55 PM 53.6 °F - 32.0 °F 44% 29.65 in 10.0 mi SSE 19.6 mph 29.9 mph N/A   Clear
3:15 PM 53.6 °F - 32.0 °F 44% 29.65 in 10.0 mi SSE 21.9 mph 27.6 mph N/A   Clear
3:35 PM 53.6 °F - 32.0 °F 44% 29.65 in 10.0 mi South 26.5 mph 34.5 mph N/A   Clear
3:55 PM 53.6 °F - 32.0 °F 44% 29.65 in 10.0 mi South 20.7 mph 31.1 mph N/A   Clear
4:15 PM 51.8 °F - 32.0 °F 47% 29.65 in 10.0 mi SSE 15.0 mph - N/A   Clear
4:35 PM 51.8 °F - 32.0 °F 47% 29.65 in 10.0 mi SSE 15.0 mph 19.6 mph N/A   Clear
4:55 PM 50.0 °F - 32.0 °F 50% 29.65 in 10.0 mi SSE 15.0 mph 19.6 mph N/A   Clear
5:15 PM 50.0 °F - 32.0 °F 50% 29.66 in 10.0 mi SSE 11.5 mph - N/A   Clear
5:35 PM 50.0 °F - 33.8 °F 54% 29.67 in 10.0 mi SSE 12.7 mph - N/A   Clear
5:55 PM 50.0 °F - 32.0 °F 50% 29.67 in 10.0 mi SE 11.5 mph - N/A   Clear
6:15 PM 48.2 °F - 32.0 °F 54% 29.67 in 10.0 mi SSE 13.8 mph - N/A   Clear
6:35 PM 48.2 °F - 32.0 °F 54% 29.67 in 10.0 mi SSE 17.3 mph - N/A   Clear
6:55 PM 48.2 °F - 32.0 °F 54% 29.67 in 10.0 mi SE 16.1 mph 24.2 mph N/A   Clear
7:15 PM 46.4 °F 40.1 °F 32.0 °F 57% 29.68 in 10.0 mi SSE 15.0 mph 20.7 mph N/A   Scattered Clouds
7:35 PM 46.4 °F 39.5 °F 32.0 °F 57% 29.68 in 10.0 mi SE 17.3 mph - N/A   Mostly Cloudy
7:55 PM 46.4 °F 39.2 °F 32.0 °F 57% 29.67 in 10.0 mi SSE 18.4 mph 21.9 mph N/A   Scattered Clouds
8:15 PM 46.4 °F 39.5 °F 32.0 °F 57% 29.67 in 10.0 mi SSE 17.3 mph 23.0 mph N/A   Scattered Clouds
8:35 PM 46.4 °F 39.2 °F 32.0 °F 57% 29.66 in 10.0 mi SSE 18.4 mph 25.3 mph N/A   Clear
8:55 PM 46.4 °F 38.7 °F 32.0 °F 57% 29.67 in 10.0 mi SSE 20.7 mph 24.2 mph N/A   Scattered Clouds
9:15 PM 46.4 °F 39.2 °F 32.0 °F 57% 29.67 in 10.0 mi SSE 18.4 mph 25.3 mph N/A   Scattered Clouds
9:35 PM 44.6 °F 37.2 °F 32.0 °F 61% 29.67 in 10.0 mi SSE 17.3 mph 23.0 mph N/A   Clear
9:55 PM 46.4 °F 39.2 °F 32.0 °F 57% 29.67 in 10.0 mi SSE 18.4 mph 23.0 mph N/A   Scattered Clouds
10:15 PM 44.6 °F 37.2 °F 32.0 °F 61% 29.67 in 10.0 mi SSE 17.3 mph 25.3 mph N/A   Clear
10:35 PM 44.6 °F 37.4 °F 32.0 °F 61% 29.67 in 10.0 mi SSE 16.1 mph - N/A   Clear
10:55 PM 44.6 °F 37.8 °F 32.0 °F 61% 29.67 in 10.0 mi SSE 15.0 mph - N/A   Clear